Time,TemperatureF,DewpointF,PressureIn,WindDirection,WindDirectionDegrees,WindSpeedMPH,WindSpeedGustMPH,Humidity,HourlyPrecipIn,Conditions,Clouds,dailyrainin,SoftwareType,DateUTC
2013-02-18 00:00:00,12.5,-0.2,29.74,NW,313,5.0,22.0,56,0.00,,,0.00,VWS V14.01,2013-02-18 05:00:00,
2013-02-18 00:05:00,12.5,-0.2,29.74,West,275,5.0,10.0,56,0.00,,,0.00,VWS V14.01,2013-02-18 05:05:00,
2013-02-18 00:10:00,12.4,-0.3,29.74,SSW,211,4.0,14.0,56,0.00,,,0.00,VWS V14.01,2013-02-18 05:10:00,
2013-02-18 00:15:00,12.3,0.0,29.74,West,267,18.0,18.0,57,0.00,,,0.00,VWS V14.01,2013-02-18 05:15:00,
2013-02-18 00:20:00,12.2,-0.1,29.74,WNW,298,8.0,19.0,57,0.00,,,0.00,VWS V14.01,2013-02-18 05:20:00,
2013-02-18 00:25:00,12.2,-0.1,29.75,NNW,339,7.0,26.0,57,0.00,,,0.00,VWS V14.01,2013-02-18 05:25:00,
2013-02-18 00:30:00,12.2,-0.1,29.75,WNW,289,22.0,26.0,57,0.00,,,0.00,VWS V14.01,2013-02-18 05:30:00,
2013-02-18 00:35:00,12.2,-0.1,29.75,WNW,287,8.0,11.0,57,0.00,,,0.00,VWS V14.01,2013-02-18 05:35:00,
2013-02-18 00:40:00,12.1,-0.2,29.75,WSW,254,13.0,17.0,57,0.00,,,0.00,VWS V14.01,2013-02-18 05:40:00,
2013-02-18 00:45:00,12.1,-0.2,29.76,WNW,299,9.0,23.0,57,0.00,,,0.00,VWS V14.01,2013-02-18 05:45:00,
2013-02-18 00:50:00,12.1,0.2,29.76,WNW,282,8.0,23.0,58,0.00,,,0.00,VWS V14.01,2013-02-18 05:50:00,
2013-02-18 00:55:00,12.1,-0.2,29.76,SW,224,5.0,25.0,57,0.00,,,0.00,VWS V14.01,2013-02-18 05:55:00,
2013-02-18 01:00:00,12.1,-0.2,29.76,NNW,340,6.0,25.0,57,0.00,,,0.00,VWS V14.01,2013-02-18 06:00:00,
2013-02-18 01:05:00,12.0,-0.3,29.76,WNW,298,7.0,14.0,57,0.00,,,0.00,VWS V14.01,2013-02-18 06:05:00,
2013-02-18 01:10:00,12.0,0.1,29.77,WNW,301,8.0,17.0,58,0.00,,,0.00,VWS V14.01,2013-02-18 06:10:00,
2013-02-18 01:15:00,12.0,0.1,29.77,WNW,287,9.0,17.0,58,0.00,,,0.00,VWS V14.01,2013-02-18 06:15:00,
2013-02-18 01:20:00,11.9,-0.4,29.78,WNW,302,5.0,22.0,57,0.00,,,0.00,VWS V14.01,2013-02-18 06:20:00,
2013-02-18 01:25:00,11.9,-0.4,29.78,WNW,302,6.0,22.0,57,0.00,,,0.00,VWS V14.01,2013-02-18 06:25:00,
2013-02-18 01:30:00,11.9,-0.4,29.78,NW,313,4.0,22.0,57,0.00,,,0.00,VWS V14.01,2013-02-18 06:30:00,
2013-02-18 01:35:00,11.9,-0.4,29.78,WNW,294,3.0,12.0,57,0.00,,,0.00,VWS V14.01,2013-02-18 06:35:00,
2013-02-18 01:40:00,11.8,-0.5,29.78,West,277,9.0,15.0,57,0.00,,,0.00,VWS V14.01,2013-02-18 06:40:00,
2013-02-18 01:45:00,11.8,-0.5,29.78,NNW,329,4.0,19.0,57,0.00,,,0.00,VWS V14.01,2013-02-18 06:45:00,
2013-02-18 01:50:00,11.8,-0.5,29.78,NNW,332,3.0,19.0,57,0.00,,,0.00,VWS V14.01,2013-02-18 06:50:00,
2013-02-18 01:55:00,11.7,-0.6,29.78,NNW,338,9.0,19.0,57,0.00,,,0.00,VWS V14.01,2013-02-18 06:55:00,
2013-02-18 02:00:00,11.7,-0.2,29.78,West,259,9.0,19.0,58,0.00,,,0.00,VWS V14.01,2013-02-18 07:00:00,
2013-02-18 02:05:00,11.7,-0.6,29.79,NW,306,2.0,6.0,57,0.00,,,0.00,VWS V14.01,2013-02-18 07:05:00,
2013-02-18 02:10:00,11.7,-0.2,29.78,WNW,286,9.0,12.0,58,0.00,,,0.00,VWS V14.01,2013-02-18 07:10:00,
2013-02-18 02:15:00,11.7,-0.6,29.78,WNW,282,7.0,18.0,57,0.00,,,0.00,VWS V14.01,2013-02-18 07:15:00,
2013-02-18 02:20:00,11.6,-0.3,29.78,WNW,288,6.0,18.0,58,0.00,,,0.00,VWS V14.01,2013-02-18 07:20:00,
2013-02-18 02:25:00,11.6,-0.3,29.78,West,281,7.0,19.0,58,0.00,,,0.00,VWS V14.01,2013-02-18 07:25:00,
2013-02-18 02:30:00,11.6,-0.3,29.79,NNW,328,10.0,19.0,58,0.00,,,0.00,VWS V14.01,2013-02-18 07:30:00,
2013-02-18 02:35:00,11.5,-0.4,29.79,West,274,6.0,10.0,58,0.00,,,0.00,VWS V14.01,2013-02-18 07:35:00,
2013-02-18 02:40:00,11.5,-0.4,29.80,West,277,14.0,17.0,58,0.00,,,0.00,VWS V14.01,2013-02-18 07:40:00,
2013-02-18 02:45:00,11.4,-0.5,29.80,West,280,12.0,17.0,58,0.00,,,0.00,VWS V14.01,2013-02-18 07:45:00,
2013-02-18 02:50:00,11.4,-0.5,29.80,WSW,253,9.0,17.0,58,0.00,,,0.00,VWS V14.01,2013-02-18 07:50:00,
2013-02-18 02:55:00,11.4,-0.5,29.80,WNW,285,13.0,24.0,58,0.00,,,0.00,VWS V14.01,2013-02-18 07:55:00,
2013-02-18 03:00:00,11.4,-0.5,29.80,West,262,7.0,24.0,58,0.00,,,0.00,VWS V14.01,2013-02-18 08:00:00,
2013-02-18 03:05:00,11.3,-0.6,29.80,West,273,9.0,20.0,58,0.00,,,0.00,VWS V14.01,2013-02-18 08:05:00,
2013-02-18 03:10:00,11.4,-0.5,29.80,West,276,11.0,22.0,58,0.00,,,0.00,VWS V14.01,2013-02-18 08:10:00,
2013-02-18 03:15:00,11.4,-0.5,29.81,WNW,300,3.0,22.0,58,0.00,,,0.00,VWS V14.01,2013-02-18 08:15:00,
2013-02-18 03:20:00,11.3,-0.6,29.81,NNW,327,12.0,22.0,58,0.00,,,0.00,VWS V14.01,2013-02-18 08:20:00,
2013-02-18 03:25:00,11.3,-0.6,29.81,West,274,15.0,23.0,58,0.00,,,0.00,VWS V14.01,2013-02-18 08:25:00,
2013-02-18 03:30:00,11.4,-0.5,29.81,WSW,254,13.0,24.0,58,0.00,,,0.00,VWS V14.01,2013-02-18 08:30:00,
2013-02-18 03:35:00,11.4,-0.5,29.81,West,265,15.0,15.0,58,0.00,,,0.00,VWS V14.01,2013-02-18 08:35:00,
2013-02-18 03:40:00,11.4,-0.5,29.82,West,277,6.0,24.0,58,0.00,,,0.00,VWS V14.01,2013-02-18 08:40:00,
2013-02-18 03:45:00,11.4,-0.5,29.82,WNW,292,6.0,25.0,58,0.00,,,0.00,VWS V14.01,2013-02-18 08:45:00,
2013-02-18 03:50:00,11.4,-0.5,29.82,WNW,301,5.0,25.0,58,0.00,,,0.00,VWS V14.01,2013-02-18 08:50:00,
2013-02-18 03:55:00,11.4,-0.5,29.82,WNW,291,13.0,26.0,58,0.00,,,0.00,VWS V14.01,2013-02-18 08:55:00,
2013-02-18 04:00:00,11.4,-0.5,29.83,WNW,286,7.0,26.0,58,0.00,,,0.00,VWS V14.01,2013-02-18 09:00:00,
2013-02-18 04:05:00,11.3,-0.6,29.83,West,275,10.0,10.0,58,0.00,,,0.00,VWS V14.01,2013-02-18 09:05:00,
2013-02-18 04:10:00,11.4,-0.5,29.84,West,276,10.0,24.0,58,0.00,,,0.00,VWS V14.01,2013-02-18 09:10:00,
2013-02-18 04:15:00,11.4,-0.5,29.84,West,263,5.0,24.0,58,0.00,,,0.00,VWS V14.01,2013-02-18 09:15:00,
2013-02-18 04:20:00,11.4,-0.5,29.84,WNW,289,12.0,24.0,58,0.00,,,0.00,VWS V14.01,2013-02-18 09:20:00,
2013-02-18 04:25:00,11.3,-0.6,29.84,WNW,303,8.0,24.0,58,0.00,,,0.00,VWS V14.01,2013-02-18 09:25:00,
2013-02-18 04:30:00,11.3,-0.6,29.85,NW,309,9.0,24.0,58,0.00,,,0.00,VWS V14.01,2013-02-18 09:30:00,
2013-02-18 04:35:00,11.3,-0.6,29.86,WNW,298,9.0,14.0,58,0.00,,,0.00,VWS V14.01,2013-02-18 09:35:00,
2013-02-18 04:40:00,11.3,-0.6,29.86,WNW,282,12.0,20.0,58,0.00,,,0.00,VWS V14.01,2013-02-18 09:40:00,
2013-02-18 04:45:00,11.3,-0.6,29.86,NNW,338,12.0,20.0,58,0.00,,,0.00,VWS V14.01,2013-02-18 09:45:00,
2013-02-18 04:50:00,11.2,-0.7,29.86,NW,323,4.0,20.0,58,0.00,,,0.00,VWS V14.01,2013-02-18 09:50:00,
2013-02-18 04:55:00,11.2,-0.3,29.87,NNW,336,10.0,21.0,59,0.00,,,0.00,VWS V14.01,2013-02-18 09:55:00,
2013-02-18 05:00:00,11.1,-0.4,29.87,West,273,8.0,21.0,59,0.00,,,0.00,VWS V14.01,2013-02-18 10:00:00,
2013-02-18 05:05:00,11.0,-0.5,29.87,NW,313,7.0,9.0,59,0.00,,,0.00,VWS V14.01,2013-02-18 10:05:00,
2013-02-18 05:10:00,11.0,-0.5,29.88,NW,307,11.0,16.0,59,0.00,,,0.00,VWS V14.01,2013-02-18 10:10:00,
2013-02-18 05:15:00,11.0,-0.5,29.88,NW,309,5.0,21.0,59,0.00,,,0.00,VWS V14.01,2013-02-18 10:15:00,
2013-02-18 05:20:00,11.0,-0.9,29.88,WSW,248,13.0,21.0,58,0.00,,,0.00,VWS V14.01,2013-02-18 10:20:00,
2013-02-18 05:25:00,11.0,-0.5,29.89,West,279,9.0,21.0,59,0.00,,,0.00,VWS V14.01,2013-02-18 10:25:00,
2013-02-18 05:30:00,10.9,-0.6,29.89,WNW,295,6.0,23.0,59,0.00,,,0.00,VWS V14.01,2013-02-18 10:30:00,
2013-02-18 05:35:00,10.9,-0.6,29.89,WSW,251,6.0,8.0,59,0.00,,,0.00,VWS V14.01,2013-02-18 10:35:00,
2013-02-18 05:40:00,10.9,-0.6,29.90,NW,315,11.0,17.0,59,0.00,,,0.00,VWS V14.01,2013-02-18 10:40:00,
2013-02-18 05:45:00,10.8,-0.7,29.90,West,277,12.0,17.0,59,0.00,,,0.00,VWS V14.01,2013-02-18 10:45:00,
2013-02-18 05:50:00,10.7,-0.8,29.91,WNW,299,8.0,22.0,59,0.00,,,0.00,VWS V14.01,2013-02-18 10:50:00,
2013-02-18 05:55:00,10.7,-0.8,29.90,WSW,248,7.0,22.0,59,0.00,,,0.00,VWS V14.01,2013-02-18 10:55:00,
2013-02-18 06:00:00,10.7,-0.8,29.91,WSW,248,17.0,24.0,59,0.00,,,0.00,VWS V14.01,2013-02-18 11:00:00,
2013-02-18 06:05:00,10.6,-0.5,29.91,NW,321,7.0,10.0,60,0.00,,,0.00,VWS V14.01,2013-02-18 11:05:00,
2013-02-18 06:10:00,10.6,-0.5,29.91,WNW,292,7.0,23.0,60,0.00,,,0.00,VWS V14.01,2013-02-18 11:10:00,
2013-02-18 06:15:00,10.6,-0.5,29.92,WNW,292,9.0,25.0,60,0.00,,,0.00,VWS V14.01,2013-02-18 11:15:00,
2013-02-18 06:20:00,10.5,-0.6,29.92,West,280,12.0,25.0,60,0.00,,,0.00,VWS V14.01,2013-02-18 11:20:00,
2013-02-18 06:25:00,10.4,-0.7,29.92,West,261,8.0,25.0,60,0.00,,,0.00,VWS V14.01,2013-02-18 11:25:00,
2013-02-18 06:30:00,10.4,-0.7,29.92,WNW,288,8.0,25.0,60,0.00,,,0.00,VWS V14.01,2013-02-18 11:30:00,
2013-02-18 06:35:00,10.4,-0.7,29.93,West,263,9.0,13.0,60,0.00,,,0.00,VWS V14.01,2013-02-18 11:35:00,
2013-02-18 06:40:00,10.3,-0.8,29.93,West,281,4.0,18.0,60,0.00,,,0.00,VWS V14.01,2013-02-18 11:40:00,
2013-02-18 06:45:00,10.3,-0.8,29.94,WNW,292,5.0,18.0,60,0.00,,,0.00,VWS V14.01,2013-02-18 11:45:00,
2013-02-18 06:50:00,10.3,-0.8,29.94,WSW,255,13.0,22.0,60,0.00,,,0.00,VWS V14.01,2013-02-18 11:50:00,
2013-02-18 06:55:00,10.3,-0.8,29.94,NNW,332,5.0,25.0,60,0.00,,,0.00,VWS V14.01,2013-02-18 11:55:00,
2013-02-18 07:00:00,10.4,-0.7,29.95,West,279,10.0,25.0,60,0.00,,,0.00,VWS V14.01,2013-02-18 12:00:00,
2013-02-18 07:05:00,10.6,-0.5,29.95,WNW,296,7.0,7.0,60,0.00,,,0.00,VWS V14.01,2013-02-18 12:05:00,
2013-02-18 07:10:00,10.8,-0.7,29.95,WNW,300,8.0,18.0,59,0.00,,,0.00,VWS V14.01,2013-02-18 12:10:00,
2013-02-18 07:15:00,10.9,-0.6,29.95,WNW,288,16.0,22.0,59,0.00,,,0.00,VWS V14.01,2013-02-18 12:15:00,
2013-02-18 07:20:00,11.0,-0.5,29.96,West,266,24.0,24.0,59,0.00,,,0.00,VWS V14.01,2013-02-18 12:20:00,
2013-02-18 07:25:00,11.2,-0.3,29.96,West,260,7.0,24.0,59,0.00,,,0.00,VWS V14.01,2013-02-18 12:25:00,
2013-02-18 07:30:00,11.3,-0.2,29.97,West,281,11.0,24.0,59,0.00,,,0.00,VWS V14.01,2013-02-18 12:30:00,
2013-02-18 07:35:00,11.4,-0.5,29.97,WNW,282,20.0,20.0,58,0.00,,,0.00,VWS V14.01,2013-02-18 12:35:00,
2013-02-18 07:40:00,11.5,-0.4,29.97,NW,306,7.0,23.0,58,0.00,,,0.00,VWS V14.01,2013-02-18 12:40:00,
2013-02-18 07:45:00,11.6,-0.3,29.97,West,279,10.0,23.0,58,0.00,,,0.00,VWS V14.01,2013-02-18 12:45:00,
2013-02-18 07:50:00,11.7,-0.2,29.98,WNW,287,17.0,23.0,58,0.00,,,0.00,VWS V14.01,2013-02-18 12:50:00,
2013-02-18 07:55:00,11.9,-0.4,29.98,West,274,5.0,23.0,57,0.00,,,0.00,VWS V14.01,2013-02-18 12:55:00,
2013-02-18 08:00:00,12.2,-0.1,29.98,NW,321,9.0,23.0,57,0.00,,,0.00,VWS V14.01,2013-02-18 13:00:00,
2013-02-18 08:05:00,12.4,0.1,29.99,WNW,292,10.0,16.0,57,0.00,,,0.00,VWS V14.01,2013-02-18 13:05:00,
2013-02-18 08:10:00,12.5,-0.2,29.99,WNW,287,8.0,17.0,56,0.00,,,0.00,VWS V14.01,2013-02-18 13:10:00,
2013-02-18 08:15:00,12.5,-0.2,30.00,NNW,337,7.0,20.0,56,0.00,,,0.00,VWS V14.01,2013-02-18 13:15:00,
2013-02-18 08:21:00,13.0,0.3,30.00,NW,317,4.0,20.0,56,0.00,,,0.00,VWS V14.01,2013-02-18 13:21:00,
2013-02-18 08:26:00,13.2,0.1,30.00,WNW,299,7.0,21.0,55,0.00,,,0.00,VWS V14.01,2013-02-18 13:26:00,
2013-02-18 08:31:00,13.5,0.0,30.00,WNW,296,9.0,22.0,54,0.00,,,0.00,VWS V14.01,2013-02-18 13:31:00,
2013-02-18 08:36:00,13.7,0.2,30.00,West,279,12.0,19.0,54,0.00,,,0.00,VWS V14.01,2013-02-18 13:36:00,
2013-02-18 08:41:00,13.9,0.3,30.00,NNW,331,16.0,19.0,54,0.00,,,0.00,VWS V14.01,2013-02-18 13:41:00,
2013-02-18 08:46:00,14.0,0.4,30.00,WNW,282,21.0,28.0,54,0.00,,,0.00,VWS V14.01,2013-02-18 13:46:00,
2013-02-18 08:51:00,14.1,0.5,30.01,WSW,255,8.0,28.0,54,0.00,,,0.00,VWS V14.01,2013-02-18 13:51:00,
2013-02-18 08:56:00,14.3,0.7,30.02,WNW,296,5.0,28.0,54,0.00,,,0.00,VWS V14.01,2013-02-18 13:56:00,
2013-02-18 09:01:00,14.6,0.6,30.02,NNW,335,11.0,28.0,53,0.00,,,0.00,VWS V14.01,2013-02-18 14:01:00,
2013-02-18 09:06:00,14.6,0.6,30.02,WNW,298,5.0,15.0,53,0.00,,,0.00,VWS V14.01,2013-02-18 14:06:00,
2013-02-18 09:11:00,15.1,1.1,30.01,West,275,12.0,25.0,53,0.00,,,0.00,VWS V14.01,2013-02-18 14:11:00,
2013-02-18 09:16:00,15.5,1.0,30.01,WNW,302,9.0,25.0,52,0.00,,,0.00,VWS V14.01,2013-02-18 14:16:00,
2013-02-18 09:21:00,15.7,0.8,30.01,West,277,6.0,25.0,51,0.00,,,0.00,VWS V14.01,2013-02-18 14:21:00,
2013-02-18 09:26:00,16.0,0.6,30.02,NNW,333,10.0,25.0,50,0.00,,,0.00,VWS V14.01,2013-02-18 14:26:00,
2013-02-18 09:31:00,16.5,1.1,30.01,SW,215,6.0,25.0,50,0.00,,,0.00,VWS V14.01,2013-02-18 14:31:00,
2013-02-18 09:36:00,16.7,1.3,30.02,NW,309,8.0,21.0,50,0.00,,,0.00,VWS V14.01,2013-02-18 14:36:00,
2013-02-18 09:41:00,16.9,1.1,30.02,WNW,294,12.0,21.0,49,0.00,,,0.00,VWS V14.01,2013-02-18 14:41:00,
2013-02-18 09:46:00,17.1,0.8,30.03,WNW,300,7.0,21.0,48,0.00,,,0.00,VWS V14.01,2013-02-18 14:46:00,
2013-02-18 09:51:00,17.5,1.6,30.03,SW,231,9.0,21.0,49,0.00,,,0.00,VWS V14.01,2013-02-18 14:51:00,
2013-02-18 09:56:00,17.5,0.7,30.03,West,277,23.0,23.0,47,0.00,,,0.00,VWS V14.01,2013-02-18 14:56:00,
2013-02-18 10:01:00,17.6,0.8,30.04,WSW,252,13.0,23.0,47,0.00,,,0.00,VWS V14.01,2013-02-18 15:01:00,
2013-02-18 10:06:00,17.5,0.7,30.05,West,270,6.0,11.0,47,0.00,,,0.00,VWS V14.01,2013-02-18 15:06:00,
2013-02-18 10:11:00,17.7,0.9,30.05,NW,305,8.0,20.0,47,0.00,,,0.00,VWS V14.01,2013-02-18 15:11:00,
2013-02-18 10:16:00,18.1,0.8,30.05,NW,308,8.0,21.0,46,0.00,,,0.00,VWS V14.01,2013-02-18 15:16:00,
2013-02-18 10:21:00,18.8,0.5,30.05,NW,305,13.0,21.0,44,0.00,,,0.00,VWS V14.01,2013-02-18 15:21:00,
2013-02-18 10:26:00,19.0,1.2,30.05,WSW,255,5.0,21.0,45,0.00,,,0.00,VWS V14.01,2013-02-18 15:26:00,
2013-02-18 10:31:00,19.4,1.1,30.05,West,260,8.0,21.0,44,0.00,,,0.00,VWS V14.01,2013-02-18 15:31:00,
2013-02-18 10:36:00,19.5,0.7,30.05,WSW,248,2.0,9.0,43,0.00,,,0.00,VWS V14.01,2013-02-18 15:36:00,
2013-02-18 10:41:00,20.1,1.7,30.05,NW,306,8.0,13.0,44,0.00,,,0.00,VWS V14.01,2013-02-18 15:41:00,
2013-02-18 10:46:00,19.9,1.5,30.05,WSW,245,8.0,15.0,44,0.00,,,0.00,VWS V14.01,2013-02-18 15:46:00,
2013-02-18 10:51:00,19.9,1.0,30.05,NW,316,5.0,15.0,43,0.00,,,0.00,VWS V14.01,2013-02-18 15:51:00,
2013-02-18 10:56:00,20.2,0.3,30.05,WSW,255,8.0,17.0,41,0.00,,,0.00,VWS V14.01,2013-02-18 15:56:00,
2013-02-18 11:01:00,20.7,1.2,30.05,West,267,10.0,17.0,42,0.00,,,0.00,VWS V14.01,2013-02-18 16:01:00,
2013-02-18 11:06:00,20.8,0.3,30.05,NNW,330,4.0,13.0,40,0.00,,,0.00,VWS V14.01,2013-02-18 16:06:00,
2013-02-18 11:11:00,21.1,0.6,30.05,West,275,14.0,18.0,40,0.00,,,0.00,VWS V14.01,2013-02-18 16:11:00,
2013-02-18 11:16:00,21.7,1.1,30.05,WNW,294,11.0,18.0,40,0.00,,,0.00,VWS V14.01,2013-02-18 16:16:00,
2013-02-18 11:21:00,22.3,1.7,30.05,West,275,4.0,18.0,40,0.00,,,0.00,VWS V14.01,2013-02-18 16:21:00,
2013-02-18 11:26:00,23.2,0.2,30.05,NW,304,10.0,18.0,36,0.00,,,0.00,VWS V14.01,2013-02-18 16:26:00,
2013-02-18 11:31:00,23.0,1.2,30.06,WNW,287,10.0,20.0,38,0.00,,,0.00,VWS V14.01,2013-02-18 16:31:00,
2013-02-18 11:36:00,23.1,0.1,30.06,West,279,6.0,11.0,36,0.00,,,0.00,VWS V14.01,2013-02-18 16:36:00,
2013-02-18 11:41:00,23.6,0.0,30.06,NNW,333,15.0,19.0,35,0.00,,,0.00,VWS V14.01,2013-02-18 16:41:00,
2013-02-18 11:46:00,23.5,-0.1,30.06,West,275,9.0,21.0,35,0.00,,,0.00,VWS V14.01,2013-02-18 16:46:00,
2013-02-18 11:51:00,23.8,0.2,30.06,WSW,239,7.0,21.0,35,0.00,,,0.00,VWS V14.01,2013-02-18 16:51:00,
2013-02-18 11:56:00,23.6,-0.6,30.06,WNW,293,7.0,21.0,34,0.00,,,0.00,VWS V14.01,2013-02-18 16:56:00,
2013-02-18 12:01:00,23.5,-0.7,30.05,NNW,331,8.0,21.0,34,0.00,,,0.00,VWS V14.01,2013-02-18 17:01:00,
2013-02-18 12:06:00,23.3,-0.9,30.06,SW,230,14.0,23.0,34,0.00,,,0.00,VWS V14.01,2013-02-18 17:06:00,
2013-02-18 12:11:00,23.1,-0.5,30.06,WNW,290,11.0,23.0,35,0.00,,,0.00,VWS V14.01,2013-02-18 17:11:00,
2013-02-18 12:16:00,23.1,-1.1,30.06,West,279,8.0,23.0,34,0.00,,,0.00,VWS V14.01,2013-02-18 17:16:00,
2013-02-18 12:21:00,23.7,-0.6,30.06,NW,316,7.0,23.0,34,0.00,,,0.00,VWS V14.01,2013-02-18 17:21:00,
2013-02-18 12:26:00,24.1,1.0,30.06,WNW,299,11.0,23.0,36,0.00,,,0.00,VWS V14.01,2013-02-18 17:26:00,
2013-02-18 12:31:00,24.1,-0.2,30.06,WNW,300,5.0,23.0,34,0.00,,,0.00,VWS V14.01,2013-02-18 17:31:00,
2013-02-18 12:36:00,24.1,-0.8,30.06,NW,309,7.0,14.0,33,0.00,,,0.00,VWS V14.01,2013-02-18 17:36:00,
2013-02-18 12:41:00,24.0,-0.3,30.06,WNW,302,13.0,22.0,34,0.00,,,0.00,VWS V14.01,2013-02-18 17:41:00,
2013-02-18 12:46:00,24.3,0.0,30.06,West,273,9.0,22.0,34,0.00,,,0.00,VWS V14.01,2013-02-18 17:46:00,
2013-02-18 12:51:00,24.5,0.2,30.06,West,275,12.0,22.0,34,0.00,,,0.00,VWS V14.01,2013-02-18 17:51:00,
2013-02-18 12:56:00,24.4,-0.6,30.06,NW,306,4.0,25.0,33,0.00,,,0.00,VWS V14.01,2013-02-18 17:56:00,
2013-02-18 13:01:00,24.4,0.1,30.06,WNW,284,4.0,25.0,34,0.00,,,0.00,VWS V14.01,2013-02-18 18:01:00,
2013-02-18 13:06:00,24.9,0.5,30.06,SSW,205,7.0,13.0,34,0.00,,,0.00,VWS V14.01,2013-02-18 18:06:00,
2013-02-18 13:11:00,24.8,-0.9,30.07,West,270,16.0,22.0,32,0.00,,,0.00,VWS V14.01,2013-02-18 18:11:00,
2013-02-18 13:16:00,24.6,-1.0,30.07,WNW,288,8.0,22.0,32,0.00,,,0.00,VWS V14.01,2013-02-18 18:16:00,
2013-02-18 13:21:00,24.8,-0.9,30.07,NW,313,7.0,22.0,32,0.00,,,0.00,VWS V14.01,2013-02-18 18:21:00,
2013-02-18 13:26:00,25.1,0.7,30.07,NW,306,5.0,22.0,34,0.00,,,0.00,VWS V14.01,2013-02-18 18:26:00,
2013-02-18 13:31:00,25.4,0.3,30.07,NW,319,5.0,22.0,33,0.00,,,0.00,VWS V14.01,2013-02-18 18:31:00,
2013-02-18 13:36:00,25.3,-0.4,30.07,West,259,5.0,15.0,32,0.00,,,0.00,VWS V14.01,2013-02-18 18:36:00,
2013-02-18 13:41:00,25.3,-0.4,30.07,NW,311,4.0,16.0,32,0.00,,,0.00,VWS V14.01,2013-02-18 18:41:00,
2013-02-18 13:46:00,25.7,0.6,30.08,WNW,298,6.0,16.0,33,0.00,,,0.00,VWS V14.01,2013-02-18 18:46:00,
2013-02-18 13:51:00,25.2,-0.5,30.07,NW,314,1.0,17.0,32,0.00,,,0.00,VWS V14.01,2013-02-18 18:51:00,
2013-02-18 13:56:00,25.3,-0.4,30.07,West,263,2.0,17.0,32,0.00,,,0.00,VWS V14.01,2013-02-18 18:56:00,
2013-02-18 14:01:00,25.5,-0.2,30.08,NW,304,5.0,17.0,32,0.00,,,0.00,VWS V14.01,2013-02-18 19:01:00,
2013-02-18 14:06:00,25.6,0.5,30.07,SW,232,4.0,10.0,33,0.00,,,0.00,VWS V14.01,2013-02-18 19:06:00,
2013-02-18 14:11:00,25.5,0.4,30.08,NNW,327,6.0,15.0,33,0.00,,,0.00,VWS V14.01,2013-02-18 19:11:00,
2013-02-18 14:16:00,25.4,-0.3,30.08,NW,310,5.0,15.0,32,0.00,,,0.00,VWS V14.01,2013-02-18 19:16:00,
2013-02-18 14:21:00,25.6,-0.2,30.08,NNW,332,6.0,19.0,32,0.00,,,0.00,VWS V14.01,2013-02-18 19:21:00,
2013-02-18 14:26:00,25.6,-0.2,30.08,WSW,248,8.0,19.0,32,0.00,,,0.00,VWS V14.01,2013-02-18 19:26:00,
2013-02-18 14:31:00,25.4,-1.0,30.08,West,273,12.0,19.0,31,0.00,,,0.00,VWS V14.01,2013-02-18 19:31:00,
2013-02-18 14:37:00,25.6,0.5,30.08,WNW,284,16.0,17.0,33,0.00,,,0.00,VWS V14.01,2013-02-18 19:37:00,
2013-02-18 14:42:00,25.6,-0.2,30.08,WNW,292,6.0,17.0,32,0.00,,,0.00,VWS V14.01,2013-02-18 19:42:00,
2013-02-18 14:47:00,25.8,0.0,30.08,WNW,290,9.0,17.0,32,0.00,,,0.00,VWS V14.01,2013-02-18 19:47:00,
2013-02-18 14:52:00,26.0,0.2,30.08,NW,313,6.0,17.0,32,0.00,,,0.00,VWS V14.01,2013-02-18 19:52:00,
2013-02-18 14:57:00,25.8,-0.6,30.08,NW,304,11.0,19.0,31,0.00,,,0.00,VWS V14.01,2013-02-18 19:57:00,
2013-02-18 15:02:00,25.9,-0.6,30.08,WNW,286,7.0,19.0,31,0.00,,,0.00,VWS V14.01,2013-02-18 20:02:00,
2013-02-18 15:07:00,26.3,-0.9,30.08,West,276,8.0,12.0,30,0.00,,,0.00,VWS V14.01,2013-02-18 20:07:00,
2013-02-18 15:12:00,26.4,-0.8,30.08,WNW,283,10.0,16.0,30,0.00,,,0.00,VWS V14.01,2013-02-18 20:12:00,
2013-02-18 15:17:00,26.3,-1.6,30.08,NNW,340,3.0,18.0,29,0.00,,,0.00,VWS V14.01,2013-02-18 20:17:00,
2013-02-18 15:22:00,26.5,-1.5,30.08,West,274,11.0,20.0,29,0.00,,,0.00,VWS V14.01,2013-02-18 20:22:00,
2013-02-18 15:27:00,26.5,-1.5,30.08,WNW,298,11.0,20.0,29,0.00,,,0.00,VWS V14.01,2013-02-18 20:27:00,
2013-02-18 15:32:00,26.7,-1.3,30.09,WNW,297,6.0,20.0,29,0.00,,,0.00,VWS V14.01,2013-02-18 20:32:00,
2013-02-18 15:37:00,26.7,-2.0,30.09,West,266,18.0,18.0,28,0.00,,,0.00,VWS V14.01,2013-02-18 20:37:00,
2013-02-18 15:42:00,26.6,-2.1,30.09,West,263,17.0,21.0,28,0.00,,,0.00,VWS V14.01,2013-02-18 20:42:00,
2013-02-18 15:47:00,26.6,-2.1,30.09,NW,306,5.0,21.0,28,0.00,,,0.00,VWS V14.01,2013-02-18 20:47:00,
2013-02-18 15:52:00,26.7,-2.0,30.09,West,263,6.0,21.0,28,0.00,,,0.00,VWS V14.01,2013-02-18 20:52:00,
2013-02-18 15:57:00,26.8,-1.9,30.09,West,281,4.0,21.0,28,0.00,,,0.00,VWS V14.01,2013-02-18 20:57:00,
2013-02-18 16:02:00,26.8,-1.9,30.10,WSW,246,14.0,21.0,28,0.00,,,0.00,VWS V14.01,2013-02-18 21:02:00,
2013-02-18 16:07:00,26.6,-2.1,30.10,West,275,7.0,11.0,28,0.00,,,0.00,VWS V14.01,2013-02-18 21:07:00,
2013-02-18 16:12:00,26.6,-2.9,30.10,WNW,292,3.0,16.0,27,0.00,,,0.00,VWS V14.01,2013-02-18 21:12:00,
2013-02-18 16:17:00,26.6,-2.1,30.10,WSW,248,6.0,22.0,28,0.00,,,0.00,VWS V14.01,2013-02-18 21:17:00,
2013-02-18 16:22:00,26.5,-2.2,30.10,WSW,243,5.0,22.0,28,0.00,,,0.00,VWS V14.01,2013-02-18 21:22:00,
2013-02-18 16:27:00,26.5,-1.5,30.10,WSW,238,12.0,22.0,29,0.00,,,0.00,VWS V14.01,2013-02-18 21:27:00,
2013-02-18 16:32:00,26.3,-1.6,30.10,West,268,5.0,22.0,29,0.00,,,0.00,VWS V14.01,2013-02-18 21:32:00,
2013-02-18 16:37:00,26.2,-1.7,30.10,WNW,299,4.0,11.0,29,0.00,,,0.00,VWS V14.01,2013-02-18 21:37:00,
2013-02-18 16:42:00,26.1,-1.1,30.11,West,267,7.0,11.0,30,0.00,,,0.00,VWS V14.01,2013-02-18 21:42:00,
2013-02-18 16:47:00,26.0,-0.5,30.11,WNW,284,5.0,11.0,31,0.00,,,0.00,VWS V14.01,2013-02-18 21:47:00,
2013-02-18 16:52:00,25.9,0.8,30.11,WSW,256,7.0,13.0,33,0.00,,,0.00,VWS V14.01,2013-02-18 21:52:00,
2013-02-18 16:57:00,25.7,0.6,30.11,West,281,4.0,13.0,33,0.00,,,0.00,VWS V14.01,2013-02-18 21:57:00,
2013-02-18 17:02:00,25.6,-0.2,30.11,WSW,250,7.0,13.0,32,0.00,,,0.00,VWS V14.01,2013-02-18 22:02:00,
2013-02-18 17:07:00,25.4,0.3,30.11,WNW,297,5.0,11.0,33,0.00,,,0.00,VWS V14.01,2013-02-18 22:07:00,
2013-02-18 17:12:00,25.3,0.9,30.12,West,275,5.0,11.0,34,0.00,,,0.00,VWS V14.01,2013-02-18 22:12:00,
2013-02-18 17:17:00,25.1,0.1,30.12,West,259,4.0,14.0,33,0.00,,,0.00,VWS V14.01,2013-02-18 22:17:00,
2013-02-18 17:22:00,24.8,1.0,30.12,WSW,255,4.0,14.0,35,0.00,,,0.00,VWS V14.01,2013-02-18 22:22:00,
2013-02-18 17:27:00,24.5,1.4,30.12,West,265,5.0,14.0,36,0.00,,,0.00,VWS V14.01,2013-02-18 22:27:00,
2013-02-18 17:32:00,24.3,1.2,30.12,WNW,286,2.0,14.0,36,0.00,,,0.00,VWS V14.01,2013-02-18 22:32:00,
2013-02-18 17:37:00,24.0,1.5,30.13,WNW,284,3.0,9.0,37,0.00,,,0.00,VWS V14.01,2013-02-18 22:37:00,
2013-02-18 17:42:00,23.8,1.9,30.13,West,266,5.0,10.0,38,0.00,,,0.00,VWS V14.01,2013-02-18 22:42:00,
2013-02-18 17:47:00,23.7,1.2,30.13,West,269,4.0,11.0,37,0.00,,,0.00,VWS V14.01,2013-02-18 22:47:00,
2013-02-18 17:52:00,23.7,1.2,30.13,WNW,300,7.0,11.0,37,0.00,,,0.00,VWS V14.01,2013-02-18 22:52:00,
2013-02-18 17:57:00,23.6,1.2,30.13,West,281,6.0,13.0,37,0.00,,,0.00,VWS V14.01,2013-02-18 22:57:00,
2013-02-18 18:02:00,23.5,1.1,30.13,West,273,5.0,13.0,37,0.00,,,0.00,VWS V14.01,2013-02-18 23:02:00,
2013-02-18 18:07:00,23.6,1.2,30.13,West,260,5.0,13.0,37,0.00,,,0.00,VWS V14.01,2013-02-18 23:07:00,
2013-02-18 18:12:00,23.4,0.4,30.14,WNW,292,5.0,14.0,36,0.00,,,0.00,VWS V14.01,2013-02-18 23:12:00,
2013-02-18 18:17:00,23.4,0.4,30.14,West,273,3.0,14.0,36,0.00,,,0.00,VWS V14.01,2013-02-18 23:17:00,
2013-02-18 18:22:00,23.2,0.8,30.14,West,265,5.0,14.0,37,0.00,,,0.00,VWS V14.01,2013-02-18 23:22:00,
2013-02-18 18:27:00,23.1,0.7,30.14,WSW,248,10.0,14.0,37,0.00,,,0.00,VWS V14.01,2013-02-18 23:27:00,
2013-02-18 18:32:00,23.1,0.7,30.14,West,265,5.0,15.0,37,0.00,,,0.00,VWS V14.01,2013-02-18 23:32:00,
2013-02-18 18:37:00,23.0,0.6,30.14,West,266,10.0,10.0,37,0.00,,,0.00,VWS V14.01,2013-02-18 23:37:00,
2013-02-18 18:42:00,22.8,1.0,30.14,WNW,282,3.0,10.0,38,0.00,,,0.00,VWS V14.01,2013-02-18 23:42:00,
2013-02-18 18:47:00,22.7,0.9,30.14,West,277,6.0,10.0,38,0.00,,,0.00,VWS V14.01,2013-02-18 23:47:00,
2013-02-18 18:52:00,22.7,0.9,30.15,West,281,8.0,14.0,38,0.00,,,0.00,VWS V14.01,2013-02-18 23:52:00,
2013-02-18 18:57:00,22.5,1.3,30.15,WNW,289,8.0,14.0,39,0.00,,,0.00,VWS V14.01,2013-02-18 23:57:00,
2013-02-18 19:02:00,22.5,1.3,30.15,WSW,250,6.0,14.0,39,0.00,,,0.00,VWS V14.01,2013-02-19 00:02:00,
2013-02-18 19:07:00,22.3,1.7,30.15,NW,314,4.0,8.0,40,0.00,,,0.00,VWS V14.01,2013-02-19 00:07:00,
2013-02-18 19:12:00,22.1,1.5,30.16,West,280,2.0,10.0,40,0.00,,,0.00,VWS V14.01,2013-02-19 00:12:00,
2013-02-18 19:17:00,22.0,1.9,30.15,WSW,255,4.0,10.0,41,0.00,,,0.00,VWS V14.01,2013-02-19 00:17:00,
2013-02-18 19:22:00,22.0,1.4,30.16,WSW,257,3.0,10.0,40,0.00,,,0.00,VWS V14.01,2013-02-19 00:22:00,
2013-02-18 19:27:00,21.9,1.8,30.16,West,270,7.0,13.0,41,0.00,,,0.00,VWS V14.01,2013-02-19 00:27:00,
2013-02-18 19:32:00,21.9,1.3,30.16,West,272,4.0,13.0,40,0.00,,,0.00,VWS V14.01,2013-02-19 00:32:00,
2013-02-18 19:37:00,21.9,1.3,30.16,West,271,8.0,9.0,40,0.00,,,0.00,VWS V14.01,2013-02-19 00:37:00,
2013-02-18 19:42:00,21.8,1.7,30.16,WSW,244,5.0,11.0,41,0.00,,,0.00,VWS V14.01,2013-02-19 00:42:00,
2013-02-18 19:47:00,21.8,1.2,30.16,WSW,240,6.0,11.0,40,0.00,,,0.00,VWS V14.01,2013-02-19 00:47:00,
2013-02-18 19:52:00,21.9,1.8,30.16,West,260,7.0,11.0,41,0.00,,,0.00,VWS V14.01,2013-02-19 00:52:00,
2013-02-18 19:57:00,21.7,1.6,30.16,West,260,2.0,11.0,41,0.00,,,0.00,VWS V14.01,2013-02-19 00:57:00,
2013-02-18 20:02:00,21.6,2.1,30.16,WNW,284,1.0,11.0,42,0.00,,,0.00,VWS V14.01,2013-02-19 01:02:00,
2013-02-18 20:07:00,21.4,1.9,30.17,West,269,4.0,10.0,42,0.00,,,0.00,VWS V14.01,2013-02-19 01:07:00,
2013-02-18 20:12:00,21.4,2.4,30.17,West,272,3.0,10.0,43,0.00,,,0.00,VWS V14.01,2013-02-19 01:12:00,
2013-02-18 20:17:00,21.2,2.7,30.17,WSW,249,3.0,10.0,44,0.00,,,0.00,VWS V14.01,2013-02-19 01:17:00,
2013-02-18 20:22:00,21.2,2.7,30.17,West,265,3.0,10.0,44,0.00,,,0.00,VWS V14.01,2013-02-19 01:22:00,
2013-02-18 20:27:00,21.1,2.1,30.17,WSW,250,3.0,10.0,43,0.00,,,0.00,VWS V14.01,2013-02-19 01:27:00,
2013-02-18 20:33:00,21.0,2.5,30.18,WSW,257,5.0,10.0,44,0.00,,,0.00,VWS V14.01,2013-02-19 01:33:00,
2013-02-18 20:38:00,21.1,2.1,30.18,WSW,240,7.0,9.0,43,0.00,,,0.00,VWS V14.01,2013-02-19 01:38:00,
2013-02-18 20:43:00,21.2,2.7,30.18,West,264,6.0,11.0,44,0.00,,,0.00,VWS V14.01,2013-02-19 01:43:00,
2013-02-18 20:48:00,21.1,2.6,30.18,West,271,3.0,11.0,44,0.00,,,0.00,VWS V14.01,2013-02-19 01:48:00,
2013-02-18 20:53:00,20.9,2.9,30.18,West,261,4.0,11.0,45,0.00,,,0.00,VWS V14.01,2013-02-19 01:53:00,
2013-02-18 20:58:00,20.8,2.8,30.18,WSW,244,3.0,11.0,45,0.00,,,0.00,VWS V14.01,2013-02-19 01:58:00,
2013-02-18 21:03:00,20.7,3.2,30.18,West,277,4.0,11.0,46,0.00,,,0.00,VWS V14.01,2013-02-19 02:03:00,
2013-02-18 21:08:00,20.6,3.6,30.18,West,265,3.0,6.0,47,0.00,,,0.00,VWS V14.01,2013-02-19 02:08:00,
2013-02-18 21:13:00,20.4,3.4,30.18,West,280,4.0,7.0,47,0.00,,,0.00,VWS V14.01,2013-02-19 02:13:00,
2013-02-18 21:18:00,20.3,3.3,30.18,WSW,258,7.0,7.0,47,0.00,,,0.00,VWS V14.01,2013-02-19 02:18:00,
2013-02-18 21:23:00,20.3,3.3,30.18,WSW,247,1.0,9.0,47,0.00,,,0.00,VWS V14.01,2013-02-19 02:23:00,
2013-02-18 21:28:00,20.3,2.8,30.18,WSW,254,2.0,9.0,46,0.00,,,0.00,VWS V14.01,2013-02-19 02:28:00,
2013-02-18 21:33:00,20.3,2.8,30.18,West,260,2.0,9.0,46,0.00,,,0.00,VWS V14.01,2013-02-19 02:33:00,
2013-02-18 21:38:00,20.1,3.1,30.18,West,261,1.0,4.0,47,0.00,,,0.00,VWS V14.01,2013-02-19 02:38:00,
2013-02-18 21:43:00,20.0,3.5,30.18,WSW,245,4.0,5.0,48,0.00,,,0.00,VWS V14.01,2013-02-19 02:43:00,
2013-02-18 21:48:00,19.9,3.4,30.18,WSW,249,3.0,6.0,48,0.00,,,0.00,VWS V14.01,2013-02-19 02:48:00,
2013-02-18 21:53:00,19.7,3.2,30.18,WSW,256,2.0,6.0,48,0.00,,,0.00,VWS V14.01,2013-02-19 02:53:00,
2013-02-18 21:58:00,19.5,3.5,30.19,WSW,257,2.0,6.0,49,0.00,,,0.00,VWS V14.01,2013-02-19 02:58:00,
2013-02-18 22:03:00,19.5,3.0,30.19,WSW,245,6.0,11.0,48,0.00,,,0.00,VWS V14.01,2013-02-19 03:03:00,
2013-02-18 22:08:00,19.8,3.3,30.19,WSW,253,4.0,10.0,48,0.00,,,0.00,VWS V14.01,2013-02-19 03:08:00,
2013-02-18 22:13:00,20.3,2.4,30.19,West,275,3.0,11.0,45,0.00,,,0.00,VWS V14.01,2013-02-19 03:13:00,
2013-02-18 22:18:00,20.6,2.6,30.19,West,263,4.0,11.0,45,0.00,,,0.00,VWS V14.01,2013-02-19 03:18:00,
2013-02-18 22:23:00,20.5,2.5,30.19,West,266,4.0,11.0,45,0.00,,,0.00,VWS V14.01,2013-02-19 03:23:00,
2013-02-18 22:28:00,20.4,2.9,30.19,WSW,258,3.0,11.0,46,0.00,,,0.00,VWS V14.01,2013-02-19 03:28:00,
2013-02-18 22:33:00,20.3,2.8,30.19,WSW,252,6.0,12.0,46,0.00,,,0.00,VWS V14.01,2013-02-19 03:33:00,
2013-02-18 22:38:00,20.3,2.8,30.19,West,271,3.0,9.0,46,0.00,,,0.00,VWS V14.01,2013-02-19 03:38:00,
2013-02-18 22:43:00,20.2,2.3,30.19,WSW,247,7.0,10.0,45,0.00,,,0.00,VWS V14.01,2013-02-19 03:43:00,
2013-02-18 22:48:00,20.3,2.8,30.19,West,260,5.0,10.0,46,0.00,,,0.00,VWS V14.01,2013-02-19 03:48:00,
2013-02-18 22:53:00,20.4,2.9,30.20,West,262,4.0,10.0,46,0.00,,,0.00,VWS V14.01,2013-02-19 03:53:00,
2013-02-18 22:59:00,20.4,2.9,30.19,West,261,6.0,10.0,46,0.00,,,0.00,VWS V14.01,2013-02-19 03:59:00,
2013-02-18 23:04:00,20.5,2.5,30.20,West,259,3.0,10.0,45,0.00,,,0.00,VWS V14.01,2013-02-19 04:04:00,
2013-02-18 23:09:00,20.5,2.5,30.19,WSW,254,5.0,6.0,45,0.00,,,0.00,VWS V14.01,2013-02-19 04:09:00,
2013-02-18 23:14:00,20.6,2.2,30.19,WNW,286,3.0,8.0,44,0.00,,,0.00,VWS V14.01,2013-02-19 04:14:00,
2013-02-18 23:19:00,20.5,2.5,30.19,West,261,2.0,8.0,45,0.00,,,0.00,VWS V14.01,2013-02-19 04:19:00,
2013-02-18 23:24:00,20.3,2.4,30.19,West,267,4.0,9.0,45,0.00,,,0.00,VWS V14.01,2013-02-19 04:24:00,
2013-02-18 23:29:00,20.2,2.3,30.19,West,279,4.0,9.0,45,0.00,,,0.00,VWS V14.01,2013-02-19 04:29:00,
2013-02-18 23:34:00,20.2,2.3,30.19,West,268,4.0,9.0,45,0.00,,,0.00,VWS V14.01,2013-02-19 04:34:00,
2013-02-18 23:39:00,20.2,2.7,30.19,West,276,4.0,7.0,46,0.00,,,0.00,VWS V14.01,2013-02-19 04:39:00,
2013-02-18 23:44:00,20.2,3.2,30.19,West,281,5.0,8.0,47,0.00,,,0.00,VWS V14.01,2013-02-19 04:44:00,
2013-02-18 23:49:00,20.1,3.1,30.19,West,281,6.0,8.0,47,0.00,,,0.00,VWS V14.01,2013-02-19 04:49:00,
2013-02-18 23:54:00,20.1,3.1,30.19,West,281,5.0,8.0,47,0.00,,,0.00,VWS V14.01,2013-02-19 04:54:00,
2013-02-18 23:59:00,20.3,3.3,30.20,WNW,285,7.0,11.0,47,0.00,,,0.00,VWS V14.01,2013-02-19 04:59:00,